Location: Fours
(44.3167°N, 6.7000°E)
Time: 11:43:41
(UTC+00:00)

Cosmos 2154 Rocket - Pass Details

Date: 30 November 2020
Orbit: 966 x 997 km, 82.9° (Epoch: 26 January)

Event Time Altitude Azimuth Distance (km) Brightness Sun altitude
Rises 16:28:44 0° 349° (N) 3,718 6.9 -6.1°
Reaches altitude 10° 16:31:16 10° 347° (NNW) 2,768 6.3 -6.5°
Maximum altitude 16:37:34 69° 266° (W) 1,062 4.5 -7.5°
Drops below altitude 10° 16:43:51 10° 184° (S) 2,756 6.7 -8.6°
Sets 16:46:23 0° 182° (S) 3,700 7.4 -9.0°
